Hourly Weather Abramivka

Today, 24 January, Sunday

Time Temperature Precipitation Wind Pressure Humidity
00:00 0°C° 0 mm 4 mps 742 mmHg 95%
01:00 0°C° 0 mm 5 mps 742 mmHg 96%
02:00 +1°C° 0 mm 5 mps 742 mmHg 97%
03:00 +1°C° 0 mm 5 mps 741 mmHg 97%
04:00 +2°C° 0 mm 5 mps 741 mmHg 97%
05:00 +2°C° 0 mm 6 mps 740 mmHg 97%
06:00 +2°C° 0 mm 6 mps 740 mmHg 96%
07:00 +2°C° 0 mm 6 mps 740 mmHg 95%
08:00 +2°C° 0 mm 6 mps 740 mmHg 94%
09:00 +3°C° 0.4 mm 6 mps 739 mmHg 94%
10:00 +3°C° 0.4 mm 7 mps 739 mmHg 93%
11:00 +3°C° 0.4 mm 7 mps 739 mmHg 93%
12:00 +3°C° 0.3 mm 7 mps 738 mmHg 92%
13:00 +3°C° 0.3 mm 7 mps 737 mmHg 91%
14:00 +3°C° 0.3 mm 7 mps 736 mmHg 90%
15:00 +4°C° 0.2 mm 8 mps 736 mmHg 90%
16:00 +4°C° 0.2 mm 8 mps 736 mmHg 89%
17:00 +3°C° 0.2 mm 9 mps 736 mmHg 88%
18:00 +2°C° 0.1 mm 9 mps 736 mmHg 88%
19:00 +2°C° 0.1 mm 8 mps 737 mmHg 88%
20:00 +2°C° 0.1 mm 8 mps 737 mmHg 87%
21:00 +2°C° 0 mm 7 mps 738 mmHg 89%
22:00 +1°C° 0 mm 5 mps 738 mmHg 90%
23:00 0°C° 0 mm 4 mps 739 mmHg 92%

Tomorrow, 25 January, Monday

Time Temperature Precipitation Wind Pressure Humidity
00:00 0°C° 0 mm 4 mps 739 mmHg 92%
01:00 +1°C° 0 mm 3 mps 739 mmHg 93%
02:00 0°C° 0 mm 3 mps 740 mmHg 94%
03:00 0°C° 0 mm 3 mps 740 mmHg 95%
04:00 0°C° 0 mm 3 mps 740 mmHg 95%
05:00 +1°C° 0 mm 2 mps 740 mmHg 96%
06:00 +2°C° 0 mm 2 mps 740 mmHg 96%
07:00 +2°C° 0 mm 2 mps 740 mmHg 97%
08:00 +3°C° 0 mm 1 mps 740 mmHg 97%
09:00 +3°C° 0 mm 2 mps 740 mmHg 96%
10:00 +3°C° 0 mm 2 mps 740 mmHg 95%
11:00 +4°C° 0 mm 2 mps 740 mmHg 94%
12:00 +3°C° 0 mm 3 mps 740 mmHg 94%
13:00 +3°C° 0 mm 3 mps 739 mmHg 93%
14:00 +3°C° 0 mm 4 mps 739 mmHg 93%
15:00 +3°C° 0.6 mm 4 mps 738 mmHg 94%
16:00 +3°C° 0.6 mm 5 mps 737 mmHg 95%
17:00 +3°C° 0.6 mm 6 mps 737 mmHg 96%
18:00 +3°C° 0.9 mm 6 mps 736 mmHg 95%
19:00 +4°C° 0.9 mm 7 mps 735 mmHg 94%
20:00 +4°C° 0.9 mm 7 mps 734 mmHg 93%
21:00 +4°C° 0.3 mm 8 mps 733 mmHg 92%
22:00 +4°C° 0.3 mm 8 mps 732 mmHg 90%
23:00 +4°C° 0.3 mm 8 mps 732 mmHg 88%

Day after tomorrow, 26 January, Tuesday

Time Temperature Precipitation Wind Pressure Humidity
00:00 +4°C° 0.7 mm 8 mps 731 mmHg 90%
01:00 +4°C° 0.7 mm 7 mps 731 mmHg 91%
02:00 +4°C° 0.7 mm 7 mps 730 mmHg 92%
03:00 +2°C° 0.1 mm 7 mps 729 mmHg 88%
04:00 +1°C° 0.1 mm 6 mps 729 mmHg 83%
05:00 -1°C° 0.1 mm 6 mps 728 mmHg 79%
06:00 -1°C° 0.1 mm 6 mps 728 mmHg 84%
07:00 -2°C° 0.1 mm 6 mps 728 mmHg 90%
08:00 -2°C° 0.1 mm 7 mps 728 mmHg 96%
09:00 -2°C° 0.2 mm 6 mps 728 mmHg 94%
10:00 -2°C° 0.2 mm 6 mps 729 mmHg 92%
11:00 -2°C° 0.2 mm 6 mps 729 mmHg 91%
12:00 -1°C° 0.1 mm 5 mps 729 mmHg 91%
13:00 -1°C° 0.1 mm 4 mps 729 mmHg 91%
14:00 0°C° 0.1 mm 3 mps 729 mmHg 92%
15:00 -1°C° 0.2 mm 4 mps 730 mmHg 93%
16:00 -1°C° 0.2 mm 5 mps 731 mmHg 94%
17:00 -3°C° 0.2 mm 7 mps 731 mmHg 94%
18:00 -3°C° 0.3 mm 7 mps 732 mmHg 94%
19:00 -3°C° 0.3 mm 7 mps 733 mmHg 94%
20:00 -4°C° 0.3 mm 8 mps 733 mmHg 94%
21:00 -4°C° 0.3 mm 8 mps 734 mmHg 93%
22:00 -4°C° 0.3 mm 8 mps 735 mmHg 92%
23:00 -4°C° 0.3 mm 8 mps 735 mmHg 91%

27 January, Wednesday

Time Temperature Precipitation Wind Pressure Humidity
00:00 -4°C° 0.3 mm 8 mps 736 mmHg 91%
01:00 -5°C° 0.3 mm 8 mps 737 mmHg 91%
02:00 -5°C° 0.3 mm 8 mps 737 mmHg 91%
03:00 -5°C° 0.2 mm 8 mps 738 mmHg 92%
04:00 -5°C° 0.2 mm 8 mps 738 mmHg 92%
05:00 -5°C° 0.2 mm 8 mps 739 mmHg 92%
06:00 -5°C° 0.3 mm 8 mps 739 mmHg 92%
07:00 -5°C° 0.3 mm 8 mps 740 mmHg 91%
08:00 -5°C° 0.3 mm 8 mps 740 mmHg 91%
09:00 -4°C° 0.1 mm 8 mps 741 mmHg 89%
10:00 -4°C° 0.1 mm 8 mps 741 mmHg 87%
11:00 -4°C° 0.1 mm 8 mps 742 mmHg 84%
12:00 -3°C° 0 mm 7 mps 742 mmHg 84%
13:00 -3°C° 0 mm 7 mps 743 mmHg 84%
14:00 -3°C° 0 mm 6 mps 743 mmHg 83%
15:00 -3°C° 0 mm 6 mps 743 mmHg 84%
16:00 -4°C° 0 mm 5 mps 744 mmHg 84%
17:00 -4°C° 0 mm 5 mps 744 mmHg 84%
18:00 -4°C° 0 mm 5 mps 744 mmHg 83%
19:00 -3°C° 0 mm 4 mps 745 mmHg 83%
20:00 -3°C° 0 mm 4 mps 745 mmHg 82%
21:00 -3°C° 0 mm 4 mps 745 mmHg 83%
22:00 -3°C° 0 mm 4 mps 745 mmHg 83%
23:00 -2°C° 0 mm 3 mps 745 mmHg 83%

28 January, Thursday

Time Temperature Precipitation Wind Pressure Humidity
00:00 -4°C° 0 mm 3 mps 746 mmHg 85%
01:00 -4°C° 0 mm 3 mps 746 mmHg 86%
02:00 -3°C° 0 mm 2 mps 746 mmHg 87%
03:00 -3°C° 0 mm 2 mps 745 mmHg 88%
04:00 -4°C° 0 mm 2 mps 745 mmHg 89%
05:00 -4°C° 0 mm 2 mps 745 mmHg 89%
06:00 -4°C° 0 mm 2 mps 746 mmHg 90%
07:00 -4°C° 0 mm 2 mps 746 mmHg 90%
08:00 -3°C° 0 mm 2 mps 746 mmHg 91%
09:00 -3°C° 0 mm 2 mps 746 mmHg 89%
10:00 -4°C° 0 mm 3 mps 746 mmHg 87%
11:00 -2°C° 0 mm 3 mps 746 mmHg 85%
12:00 -2°C° 0 mm 3 mps 746 mmHg 84%
13:00 -2°C° 0 mm 3 mps 745 mmHg 83%
14:00 -1°C° 0 mm 3 mps 745 mmHg 82%
15:00 -2°C° 0 mm 2 mps 745 mmHg 85%
16:00 -3°C° 0 mm 2 mps 745 mmHg 89%
17:00 -4°C° 0 mm 2 mps 745 mmHg 92%
18:00 -4°C° 0 mm 2 mps 745 mmHg 93%
19:00 -4°C° 0 mm 2 mps 745 mmHg 94%
20:00 -5°C° 0 mm 2 mps 745 mmHg 94%

29 January, Friday

Time Temperature Precipitation Wind Pressure Humidity
Show more